Weather observations for the past three days for
Sonora, Sonora Municipal Airport
Imperial (Metric)
Date Time (cdt) Wind (mph) Vis. (mi.) Weather Sky Cond. Temperature (ºF) Relative Humidity Wind Chill (°F) Heat Index (°F) Pressure Precipitation (in)
Air Dwpt 6 hour altimeter (in) sea level (mb) 1 hr 3 hr 6 hr
Max. Min.
12 13:15 S 8 G 16 10.00 Partly Cloudy FEW042 FEW055 SCT065 0 0 0% 30.17 0.0
12 12:55 S 9 10.00 Partly Cloudy FEW043 SCT055 SCT090 0 0 0% 30.18 0.0
12 12:35 Calm 10.00 Fair CLR 0 0 0% 30.18 0.0
12 12:15 Vrbl 5 G 12 10.00 A Few Clouds FEW047 0 0 0% 30.19 0.0
12 11:55 S 9 10.00 A Few Clouds FEW048 0 0 0% 30.19 0.0
12 11:35 Vrbl 3 10.00 Fair CLR 0 0 0% 30.19 0.0
12 11:15 S 7 10.00 Fair CLR 0 0 0% 30.19 0.0
12 10:55 Vrbl 5 10.00 Fair CLR 0 0 0% 30.2 0.0
12 10:35 SE 6 10.00 Fair CLR 0 0 0% 30.19 0.0
12 10:15 Vrbl 6 10.00 Fair CLR 0 0 0% 30.19 0.0
12 09:55 Vrbl 6 10.00 Fair CLR 0 0 0% 30.19 0.0
12 09:35 S 5 10.00 Fair CLR 0 0 0% 30.19 0.0
12 09:15 SE 5 10.00 Fair CLR 0 0 0% 30.19 0.0
12 08:55 S 6 10.00 Fair CLR 0 0 0% 30.19 0.0
12 08:35 Vrbl 3 10.00 Fair CLR 0 0 0% 30.18 0.0
12 08:15 S 5 10.00 Fair CLR 0 0 0% 30.18 0.0
12 07:55 Calm 10.00 Fair CLR 0 0 0% 30.17 0.0
12 07:35 Calm 10.00 Fair CLR 0 0 0% 30.17 0.0
12 07:15 Calm 10.00 Fair CLR 0 0 0% 30.16 0.0
12 06:55 Calm 10.00 Fair CLR 0 0 0% 30.16 0.0
12 06:35 Calm 10.00 Fair CLR 0 0 0% 30.16 0.0
12 06:15 Calm 10.00 Fair CLR 0 0 0% 30.15 0.0
12 05:55 Calm 10.00 Fair CLR 0 0 0% 30.15 0.0
12 05:35 Calm 10.00 Fair CLR 0 0 0% 30.14 0.0
12 05:15 Calm 10.00 Fair CLR 0 0 0% 30.14 0.0
12 04:55 Calm 10.00 Fair CLR 0 0 0% 30.13 0.0
12 04:35 Calm 10.00 Fair CLR 0 0 0% 30.13 0.0
12 04:15 Calm 10.00 Fair CLR 0 0 0% 30.13 0.0
12 03:55 Calm 10.00 Fair CLR 0 0 0% 30.13 0.0
12 03:35 Calm 10.00 Fair CLR 0 0 0% 30.13 0.0
12 03:15 Calm 10.00 Fair CLR 0 0 0% 30.13 0.0
12 02:55 Calm 10.00 Fair CLR 0 0 0% 30.13 0.0
12 02:35 S 3 10.00 Fair CLR 0 0 0% 30.13 0.0
12 02:15 S 6 10.00 Fair CLR 0 0 0% 30.14 0.0
12 01:55 S 8 10.00 Fair CLR 0 0 0% 30.14 0.0
12 01:35 S 9 10.00 Fair CLR 0 0 0% 30.15 0.0
12 01:15 S 8 10.00 Fair CLR 0 0 0% 30.15 0.0
12 00:55 S 9 G 16 10.00 Fair CLR 0 0 0% 30.16 0.0
12 00:35 S 10 10.00 Fair CLR 0 0 0% 30.15 0.0
12 00:15 S 9 10.00 Fair CLR 0 0 0% 30.15 0.0
11 23:55 S 13 10.00 Fair CLR 0 0 0% 30.14 0.0
11 23:35 S 8 10.00 Fair CLR 0 0 0% 30.14 0.0
11 23:15 S 10 10.00 Fair CLR 0 0 0% 30.13 0.0
11 22:55 S 8 10.00 Fair CLR 0 0 0% 30.12 0.0
11 22:35 S 10 10.00 Fair CLR 0 0 0% 30.12 0.0
11 22:15 S 13 10.00 Fair CLR 0 0 0% 30.11 0.0
11 21:55 S 7 10.00 Fair CLR 0 0 0% 30.11 0.0
11 21:35 SE 6 10.00 Fair CLR 0 0 0% 30.1 0.0
11 21:15 SE 7 10.00 Fair CLR 0 0 0% 30.09 0.0
11 20:55 S 10 10.00 Fair CLR 0 0 0% 30.09 0.0
11 20:35 SE 7 10.00 Fair CLR 0 0 0% 30.08 0.0
11 20:15 SE 8 10.00 Fair CLR 0 0 0% 30.08 0.0
11 19:55 S 9 G 20 10.00 A Few Clouds FEW085 FEW100 0 0 0% 30.07 0.0
11 19:35 S 12 10.00 Partly Cloudy SCT085 0 0 0% 30.07 0.0
11 19:15 SE 8 10.00 Fair CLR 0 0 0% 30.06 0.0
11 18:55 E 13 10.00 Fair CLR 0 0 0% 30.05 0.0
11 18:35 SE 5 10.00 Fair CLR 0 0 0% 30.05 0.0
11 18:15 SE 9 G 21 10.00 Fair CLR 0 0 0% 30.05 0.0
11 17:55 E 7 10.00 A Few Clouds FEW085 FEW120 0 0 0% 30.06 0.0
11 17:35 SE 8 10.00 A Few Clouds FEW085 0 0 0% 30.06 0.0
11 17:15 Vrbl 7 G 14 10.00 A Few Clouds FEW070 FEW085 0 0 0% 30.07 0.0
11 16:55 SE 8 10.00 Fair CLR 0 0 0% 30.07 0.0
11 16:35 E 8 10.00 Fair CLR 0 0 0% 30.08 0.0
11 16:15 SE 6 10.00 Fair CLR 0 0 0% 30.09 0.0
11 15:55 SE 9 10.00 Fair CLR 0 0 0% 30.1 0.0
11 15:35 SE 5 10.00 Fair CLR 0 0 0% 30.1 0.0
11 15:15 S 7 G 14 10.00 Fair CLR 0 0 0% 30.11 0.0
11 14:55 SE 6 10.00 Fair CLR 0 0 0% 30.12 0.0
11 14:35 E 9 G 17 10.00 Fair CLR 0 0 0% 30.12 0.0
11 14:15 Vrbl 6 G 13 10.00 A Few Clouds FEW048 FEW055 FEW070 0 0 0% 30.13 0.0
11 13:55 Vrbl 6 G 14 10.00 Partly Cloudy FEW038 FEW049 SCT075 0 0 0% 30.13 0.0
11 13:35 E 5 G 12 10.00 Partly Cloudy FEW042 FEW060 SCT095 0 0 0% 30.14 0.0
11 13:15 SE 8 10.00 Fair CLR 0 0 0% 30.15 0.0
11 12:55 E 6 G 14 10.00 Fair CLR 0 0 0% 30.15 0.0
11 12:35 SE 9 10.00 Fair CLR 0 0 0% 30.16 0.0
11 12:15 SE 7 10.00 Fair CLR 0 0 0% 30.16 0.0
11 11:55 SE 5 10.00 Fair CLR 0 0 0% 30.16 0.0
11 11:35 SE 6 10.00 Fair CLR 0 0 0% 30.17 0.0
11 11:15 Calm 10.00 Fair CLR 0 0 0% 30.17 0.0
11 10:55 Calm 10.00 Fair CLR 0 0 0% 30.17 0.0
11 10:35 Calm 10.00 Fair CLR 0 0 0% 30.17 0.0
11 10:15 Calm 10.00 Fair CLR 0 0 0% 30.17 0.0
11 09:55 Calm 10.00 Fair CLR 0 0 0% 30.17 0.0
11 09:35 Vrbl 5 10.00 Fair CLR 0 0 0% 30.17 0.0
11 09:15 S 6 10.00 Fair CLR 0 0 0% 30.18 0.0
11 08:55 Calm 10.00 Fair CLR 0 0 0% 30.18 0.0
11 08:35 Calm 10.00 Fair CLR 0 0 0% 30.18 0.0
11 08:15 Calm 10.00 Fair CLR 0 0 0% 30.17 0.0
11 07:55 Calm 10.00 Fair CLR 0 0 0% 30.17 0.0
11 07:35 Calm 10.00 Fair CLR 0 0 0% 30.16 0.0
11 07:15 Calm 10.00 Fair CLR 0 0 0% 30.16 0.0
11 06:55 Calm 10.00 Fair CLR 0 0 0% 30.15 0.0
11 06:35 Calm 10.00 Fair CLR 0 0 0% 30.14 0.0
11 05:55 Calm 10.00 Fair CLR 0 0 0% 30.13 0.0
11 05:35 Calm 10.00 Fair CLR 0 0 0% 30.14 0.0
11 05:15 Calm 10.00 Fair CLR 0 0 0% 30.13 0.0
11 04:55 Calm 10.00 Fair CLR 0 0 0% 30.13 0.0
11 04:35 Calm 10.00 Fair CLR 0 0 0% 30.13 0.0
11 04:15 Calm 10.00 Fair CLR 0 0 0% 30.13 0.0
11 03:55 Calm 10.00 Fair CLR 0 0 0% 30.13 0.0
11 03:35 Calm 10.00 Fair CLR 0 0 0% 30.14 0.0
11 03:15 Calm 10.00 Fair CLR 0 0 0% 30.14 0.0
11 02:55 Calm 10.00 Fair CLR 0 0 0% 30.14 0.0
11 02:35 Calm 10.00 Fair CLR 0 0 0% 30.14 0.0
11 02:15 Calm 10.00 Fair CLR 0 0 0% 30.14 0.0
11 01:55 S 7 10.00 Fair CLR 0 0 0% 30.14 0.0
11 01:35 S 7 10.00 Fair CLR 0 0 0% 30.15 0.0
11 01:15 S 8 10.00 Fair CLR 0 0 0% 30.15 0.0
11 00:55 S 10 10.00 Fair CLR 0 0 0% 30.15 0.0
11 00:35 S 8 10.00 Fair CLR 0 0 0% 30.16 0.0
11 00:15 S 10 G 17 10.00 Fair CLR 0 0 0% 30.16 0.0
10 23:35 S 15 G 21 10.00 Fair CLR 0 0 0% 30.13 0.0
10 23:15 SE 8 G 15 10.00 Fair CLR 0 0 0% 30.12 0.0
10 22:55 SE 6 10.00 Fair CLR 0 0 0% 30.11 0.0
10 22:35 SE 6 10.00 Fair CLR 0 0 0% 30.12 0.0
10 22:15 S 5 10.00 Fair CLR 0 0 0% 30.12 0.0
10 21:55 SE 3 10.00 Fair CLR 0 0 0% 30.11 0.0
10 21:35 Calm 10.00 Light Rain NULL 0 0 0% 30.1 0.0
10 21:15 Calm 0.00 Thunderstorm in Vicinity NULL 0 0 0% 30.1 0.0
10 20:55 NE 12 9.00 Mostly Cloudy FEW002 FEW026 BKN070 0 0 0% 30.1 0.0
10 20:35 Vrbl 5 G 12 10.00 Thunderstorm in Vicinity BKN075 BKN110 0 0 0% 30.1 0.0
10 20:15 SE 10 10.00 Thunderstorm in Vicinity SCT075 SCT095 SCT110 0 0 0% 30.09 0.0
10 19:55 SE 15 10.00 Thunderstorm in Vicinity CLR 0 0 0% 30.08 0.0
10 19:35 SE 15 10.00 Fair CLR 0 0 0% 30.06 0.0
10 19:15 E 8 G 15 10.00 A Few Clouds FEW080 FEW090 FEW110 0 0 0% 30.04 0.0
10 18:55 SE 8 10.00 Partly Cloudy FEW080 FEW090 SCT110 0 0 0% 30.04 0.0
10 18:35 SE 8 10.00 Fair CLR 0 0 0% 30.04 0.0
10 18:15 SE 6 10.00 Fair CLR 0 0 0% 30.04 0.0
10 17:55 SE 6 10.00 Fair CLR 0 0 0% 30.04 0.0
10 17:35 E 9 10.00 Fair CLR 0 0 0% 30.04 0.0
10 17:15 SE 8 G 15 10.00 Fair CLR 0 0 0% 30.05 0.0
10 16:55 Vrbl 7 10.00 A Few Clouds FEW085 FEW100 0 0 0% 30.06 0.0
10 16:35 Calm 10.00 Fair CLR 0 0 0% 30.06 0.0
10 16:15 Calm 10.00 Fair CLR 0 0 0% 30.06 0.0
10 15:55 Vrbl 7 10.00 Fair CLR 0 0 0% 30.07 0.0
10 15:35 Calm 10.00 Fair CLR 0 0 0% 30.08 0.0
10 15:15 Vrbl 6 10.00 Partly Cloudy FEW036 FEW047 SCT065 0 0 0% 30.09 0.0
10 14:55 Vrbl 3 10.00 Partly Cloudy FEW048 SCT065 0 0 0% 30.1 0.0
10 14:35 Vrbl 7 10.00 Partly Cloudy FEW037 FEW045 SCT070 0 0 0% 30.1 0.0
10 14:15 Vrbl 3 10.00 Partly Cloudy FEW045 FEW065 SCT090 0 0 0% 30.1 0.0
10 13:55 Calm 10.00 Partly Cloudy FEW045 FEW065 SCT100 0 0 0% 30.11 0.0
10 13:35 Vrbl 3 10.00 Mostly Cloudy FEW045 SCT065 BKN100 0 0 0% 30.12 0.0
10 13:15 E 8 10.00 Partly Cloudy SCT060 SCT075 SCT085 0 0 0% 30.13 0.0
10 12:55 Vrbl 7 10.00 Partly Cloudy FEW050 SCT060 SCT090 0 0 0% 30.14 0.0
10 12:35 Calm 10.00 Fair CLR 0 0 0% 30.14 0.0
10 12:15 Vrbl 5 10.00 Fair CLR 0 0 0% 30.15 0.0
10 11:55 SE 6 10.00 Fair CLR 0 0 0% 30.15 0.0
10 11:35 Calm 10.00 Fair CLR 0 0 0% 30.15 0.0
10 11:15 Calm 10.00 Fair CLR 0 0 0% 30.16 0.0
10 10:55 Calm 10.00 Fair CLR 0 0 0% 30.16 0.0
10 10:35 S 5 10.00 Fair CLR 0 0 0% 30.16 0.0
10 10:15 Calm 10.00 Fair CLR 0 0 0% 30.16 0.0
10 09:55 Calm 10.00 Fair CLR 0 0 0% 30.15 0.0
10 09:35 Calm 10.00 Fair CLR 0 0 0% 30.16 0.0
10 09:15 SW 5 10.00 Fair CLR 0 0 0% 30.16 0.0
10 08:55 Calm 10.00 Fair CLR 0 0 0% 30.15 0.0
10 08:35 Calm 10.00 Fair CLR 0 0 0% 30.15 0.0
10 08:15 Calm 10.00 Fair CLR 0 0 0% 30.15 0.0
10 07:55 NE 3 10.00 Fair CLR 0 0 0% 30.15 0.0
10 07:35 Calm 10.00 Fair CLR 0 0 0% 30.14 0.0
10 07:15 Calm 10.00 Fair CLR 0 0 0% 30.14 0.0
10 06:55 Calm 10.00 Fair CLR 0 0 0% 30.13 0.0
10 06:35 N 3 10.00 Fair CLR 0 0 0% 30.13 0.0
10 06:15 Calm 10.00 Fair CLR 0 0 0% 30.13 0.0
10 05:55 Calm 10.00 Fair CLR 0 0 0% 30.12 0.0
10 05:35 Calm 10.00 Fair CLR 0 0 0% 30.13 0.0
10 05:15 Calm 10.00 Fair CLR 0 0 0% 30.12 0.0
10 04:55 Calm 10.00 Fair CLR 0 0 0% 30.12 0.0
10 04:35 Calm 10.00 Fair CLR 0 0 0% 30.13 0.0
10 04:15 Calm 10.00 Fair CLR 0 0 0% 30.12 0.0
10 03:55 Calm 10.00 Fair CLR 0 0 0% 30.12 0.0
10 03:35 Calm 10.00 Fair CLR 0 0 0% 30.12 0.0
10 03:15 Calm 10.00 Fair CLR 0 0 0% 30.13 0.0
10 02:55 Calm 10.00 Fair CLR 0 0 0% 30.13 0.0
10 02:35 Calm 10.00 Fair CLR 0 0 0% 30.13 0.0
10 02:15 Calm 10.00 A Few Clouds FEW100 0 0 0% 30.13 0.0
10 01:55 Calm 10.00 A Few Clouds FEW100 0 0 0% 30.13 0.0
10 01:35 Calm 10.00 Fair CLR 0 0 0% 30.13 0.0
10 01:15 Calm 10.00 Fair CLR 0 0 0% 30.13 0.0
10 00:55 Calm 10.00 Fair CLR 0 0 0% 30.13 0.0
10 00:35 Calm 10.00 Fair CLR 0 0 0% 30.13 0.0
10 00:15 Calm 10.00 Fair CLR 0 0 0% 30.12 0.0
09 23:55 Calm 10.00 Fair CLR 0 0 0% 30.12 0.0
09 23:35 Calm 10.00 Fair CLR 0 0 0% 30.12 0.0
09 23:15 Calm 10.00 Fair CLR 0 0 0% 30.11 0.0
09 22:55 Calm 10.00 A Few Clouds FEW090 0 0 0% 30.1 0.0
09 22:35 Calm 10.00 Fair CLR 0 0 0% 30.09 0.0
09 22:15 S 3 10.00 Fair CLR 0 0 0% 30.08 0.0
09 21:55 SE 5 10.00 Fair CLR 0 0 0% 30.07 0.0
09 21:35 S 7 10.00 Fair CLR 0 0 0% 30.06 0.0
09 21:15 SE 5 10.00 Light Rain CLR 0 0 0% 30.05 0.0
09 20:55 SE 7 10.00 Fair CLR 0 0 0% 30.05 0.0
09 20:35 SE 8 10.00 Fair CLR 0 0 0% 30.05 0.0
09 20:15 SE 9 G 15 10.00 Fair CLR 0 0 0% 30.05 0.0
09 19:55 E 12 10.00 Partly Cloudy FEW050 FEW070 SCT100 0 0 0% 30.04 0.0
09 19:35 SE 12 G 17 10.00 Fair CLR 0 0 0% 30.03 0.0
09 19:15 S 3 10.00 Fair CLR 0 0 0% 30.01 0.0
09 18:55 S 5 10.00 Fair CLR 0 0 0% 30.02 0.0
09 18:35 Vrbl 6 10.00 Fair CLR 0 0 0% 30.02 0.0
09 18:15 Vrbl 3 10.00 Fair CLR 0 0 0% 30.02 0.0
09 17:55 Calm 10.00 Fair CLR 0 0 0% 30.02 0.0
09 17:35 Calm 10.00 Fair CLR 0 0 0% 30.02 0.0
09 17:15 NE 8 10.00 Fair CLR 0 0 0% 30.03 0.0
09 16:55 NE 8 10.00 Fair CLR 0 0 0% 30.03 0.0
09 16:35 SE 5 10.00 Fair CLR 0 0 0% 30.03 0.0
09 16:15 N 8 10.00 Fair CLR 0 0 0% 30.04 0.0
09 15:55 NE 6 10.00 Fair CLR 0 0 0% 30.05 0.0
09 15:35 NE 9 10.00 Fair CLR 0 0 0% 30.06 0.0
09 15:15 NE 8 10.00 Fair CLR 0 0 0% 30.07 0.0
09 14:55 Vrbl 6 10.00 Fair CLR 0 0 0% 30.07 0.0
09 14:35 NE 8 G 14 10.00 A Few Clouds FEW065 FEW080 FEW090 0 0 0% 30.08 0.0
09 14:15 NE 8 10.00 Partly Cloudy FEW035 FEW045 SCT080 0 0 0% 30.09 0.0
09 13:55 Vrbl 7 10.00 Partly Cloudy FEW044 FEW075 SCT095 0 0 0% 30.1 0.0
09 13:35 Vrbl 3 10.00 A Few Clouds FEW050 FEW070 FEW090 0 0 0% 30.1 0.0
Date Time (cdt) Wind (mph) Vis. (mi.) Weather Sky Cond. Air Dwpt Max. Min. Relative Humidity Wind Chill (°F) Heat Index (°F) altimeter (in) sea level (mb) 1 hr 3 hr 6 hr
6 hour
Temperature (ºF) Pressure Precipitation (in)